Retour au catalogue

STARLINK-35804

ActifCommunicationsVLEO
NORAD 66371·PAYLOAD·🇺🇸 United States

Lancé Nov 6, 2025 depuis Vandenberg Space Force Base

Loading…

Prochains Passages (prochaines 24 heures)

TLE

FraisSource: CelesTrak SupGP

Époque: Sep 15, 2026, 02:31 UTC

1 66371C 25254Z   26258.10534722 -.00028117  00000+0 -83059-3 0  2584
2 66371  53.1577  68.5861 0001072  79.1819 239.9178 15.34409726    13

Suivez STARLINK-35804 en temps réel avec AllMySat

Download on the App Store